Location: Monroe
(41.9160°N, 83.3980°W)
Time: 02:49:28
(UTC-04:00)

ISS - Visible Passes

Search period start: 26 May 2016 00:00
Search period end: 05 June 2016 00:00
Orbit: 402 x 404 km, 51.6° (Epoch: 25 May)

Date Brightness Start Highest point End Pass type
(mag) Time Alt. Az. Time Alt. Az. Time Alt. Az.
26 May -0.3 01:36:00 10° NW 01:38:13 17° N 01:40:27 10° NNE visible
26 May -0.2 03:13:22 10° NNW 03:15:37 17° N 03:17:50 10° NE visible
26 May -2.3 04:49:27 10° NW 04:52:39 48° NNE 04:55:49 10° ESE visible
26 May -1.3 21:31:23 10° SSE 21:32:25 11° SE 21:33:27 10° ESE visible
26 May -3.4 23:05:08 10° SW 23:08:23 85° NW 23:11:41 10° NE visible
27 May -0.6 00:42:42 10° WNW 00:45:13 20° NNW 00:47:45 10° NE visible
27 May -0.1 02:20:33 10° NW 02:22:34 15° N 02:24:35 10° NE visible
27 May -1.3 03:56:49 10° NW 03:59:46 30° NNE 04:02:43 10° E visible
27 May -3.2 22:12:31 10° SW 22:15:41 49° SE 22:18:51 10° ENE visible
27 May -1.1 23:49:25 10° W 23:52:15 27° NNW 23:55:07 10° NE visible
28 May -0.1 01:27:32 10° NW 01:29:31 15° N 01:31:30 10° NE visible
28 May -0.7 03:04:12 10° NW 03:06:50 22° NNE 03:09:29 10° ENE visible
28 May -3.5 04:40:19 10° WNW 04:43:34 77° SW 04:46:49 10° SE visible
28 May -1.9 22:56:15 10° W 22:59:22 40° NNW 23:02:29 10° NE visible
29 May -0.2 00:34:19 10° NW 00:36:27 16° N 00:38:36 10° NNE visible
29 May -0.3 02:11:31 10° NNW 02:13:50 18° NNE 02:16:10 10° ENE visible
29 May -2.7 03:47:34 10° NW 03:50:49 57° NNE 03:54:00 10° ESE visible
29 May -1.8 05:24:45 10° W 05:26:57 17° SW 05:29:08 10° S visible
29 May -3.0 22:03:16 10° WSW 22:06:32 71° NNW 22:09:48 10° NE visible
29 May -0.4 23:40:59 10° WNW 23:43:25 19° NNW 23:45:51 10° NNE visible
30 May -0.1 01:18:44 10° NNW 01:20:47 15° N 01:22:51 10° NE visible
30 May -1.7 02:54:54 10° NW 02:57:56 34° NNE 03:00:58 10° E visible
30 May -2.6 04:31:25 10° WNW 04:34:21 32° SW 04:37:18 10° SSE visible
30 May -0.8 22:47:40 10° WNW 22:50:25 24° NNW 22:53:12 10° NE visible
31 May -0.1 00:25:45 10° NW 00:27:43 15° N 00:29:41 10° NE visible
31 May -1.0 02:02:16 10° NW 02:05:00 24° NNE 02:05:55 21° NE visible
31 May -1.5 21:54:27 10° W 21:57:30 35° NNW 22:00:33 10° NE visible
31 May -0.2 23:32:34 10° NW 23:34:37 16° N 23:36:43 10° NNE visible
01 Jun -0.5 01:09:35 10° NNW 01:12:00 19° NNE 01:13:29 14° NE visible
01 Jun -0.6 02:45:39 10° NW 02:46:02 13° NW 02:46:02 13° NW visible
01 Jun -0.3 22:39:14 10° WNW 22:41:34 18° NNW 22:43:55 10° NNE visible
02 Jun -0.3 00:16:49 10° NNW 00:18:57 16° N 00:21:04 10° NE visible
02 Jun -0.9 01:52:56 10° NW 01:54:21 22° NNW 01:54:21 22° NNW visible
02 Jun -0.7 21:45:53 10° WNW 21:48:33 22° NNW 21:51:13 10° NE visible
02 Jun -0.3 23:23:53 10° NW 23:25:52 15° N 23:27:51 10° NE visible
03 Jun -1.2 01:00:17 10° NW 01:02:55 26° NNE 01:02:55 26° NNE visible
03 Jun -0.3 22:30:44 10° NW 22:32:46 15° N 22:34:47 10° NNE visible
04 Jun -0.8 00:07:36 10° NW 00:10:07 20° NNE 00:11:35 15° NE visible
04 Jun -0.5 01:43:40 10° NW 01:44:10 14° NW 01:44:10 14° NW visible
04 Jun -0.4 21:37:25 10° NW 21:39:40 17° N 21:41:56 10° NNE visible
04 Jun -0.5 23:14:51 10° NNW 23:17:03 17° N 23:19:15 10° NE visible
